Regional Weather Roundup
Issued by NWS Raleigh/Durham, NC

Current Version | Previous Version | Text Only | Print | Product List | Glossary On
Versions: 1 2 3 4 5 6 7 8 9 10 11 12 13 14 15 16 17 18 19 20 21 22 23 24 25 26 27 28 29 30 31 32 33 34 35 36 37 38 39 40 41 42 43 44 45 46 47 48 49 50
000 ASUS42 KRAH 190210 RWRRAH NORTH CAROLINA WEATHER ROUNDUP NATIONAL WEATHER SERVICE RALEIGH NC 900 PM EST TUE DEC 18 2018 NOTE: "FAIR" INDICATES FEW OR NO CLOUDS BELOW 12,000 FEET WITH NO SIGNIFICANT WEATHER AND/OR OBSTRUCTIONS TO VISIBILITY. NCZ001-053-055-056-065-067-190300- WESTERN NORTH CAROLINA CITY SKY/WX TMP DP RH WIND PRES REMARKS ASHEVILLE FAIR 41 27 57 CALM 30.13S JEFFERSON FAIR 38 19 48 S3 30.11S MORGANTON FAIR 32 29 89 CALM 30.18R HICKORY FAIR 44 27 51 CALM 30.14R RUTHERFORDTON FAIR 41 28 60 CALM 30.15S MOUNT AIRY FAIR 37 29 72 CALM 30.17R BOONE FAIR 32 27 80 CALM 30.13R $$ NCZ021-022-025-041-071-084-088-190300- CENTRAL NORTH CAROLINA CITY SKY/WX TMP DP RH WIND PRES REMARKS CHARLOTTE FAIR 49 30 48 SE7 30.16R GREENSBORO FAIR 42 24 49 S3 30.15R WINSTON-SALEM FAIR 40 24 53 CALM 30.17R RALEIGH-DURHAM MOCLDY 40 28 62 E5 30.17S FORT BRAGG FAIR 37 36 97 CALM 30.16R FAYETTEVILLE FAIR 41 32 70 E5 30.17R BURLINGTON FAIR 37 26 64 CALM 30.16R LAURINBURG FAIR 39 33 79 CALM 30.18R $$ NCZ011-015-027-028-043-044-047-080-103-190300- NORTHEASTERN NORTH CAROLINA CITY SKY/WX TMP DP RH WIND PRES REMARKS ROCKY MT-WILSO FAIR 34 32 92 CALM 30.20R GREENVILLE FAIR 34 32 93 CALM 30.21S WASHINGTON FAIR 34 31 90 CALM 30.21S ELIZABETH CITY FAIR 38 31 76 NE5 30.21R WCI 34 MANTEO FAIR 39 31 72 CALM 30.21R CAPE HATTERAS FAIR 41 32 70 NE5 30.21R $$ NCZ078-087-090-091-093-098-101-190300- SOUTHEASTERN NORTH CAROLINA CITY SKY/WX TMP DP RH WIND PRES REMARKS LUMBERTON FAIR 45 33 63 E3 30.16R GOLDSBORO FAIR 38 32 81 E3 30.17S KINSTON CLEAR 34 32 93 CALM 30.21R KENANSVILLE FAIR 32 32 100 CALM 30.19S NEW BERN FAIR 38 31 76 CALM 30.22R CHERRY POINT FAIR 38 35 89 SE3 30.21R BEAUFORT FAIR 40 35 83 NE3 30.21R JACKSONVILLE FAIR 40 34 79 CALM 30.19S WILMINGTON FAIR 38 34 85 NE6 30.18S WCI 33 $$

USA.gov is the U.S. government's official web portal to all federal, state and local government web resources and services.